Preview of NWS' New Version of Forecast
This preview is not operational and should not be used for support decisions.

Regional Weather Roundup (RWR)

Issued by National Weather Service (NWS)

                            
000
ASUS44 KMEG 202300
RWRTN 
TENNESSEE HOURLY STATE WEATHER ROUNDUP
NATIONAL WEATHER SERVICE MEMPHIS TN
500 PM CST WED FEB 20 2019

TNZ002-004-019-021-049-052-054-088>092-210000-
WEST TENNESSEE
  
CITY           SKY/WX    TMP DP  RH WIND       PRES   REMARKS
MEMPHIS INTL   MOCLDY    49  43  80 W6        29.95R                  
NWS MEMPHIS      N/A     49 N/A N/A MISG        N/A                   
JACKSON        CLOUDY    47  45  93 W7        29.95R                  
DYERSBURG      CLOUDY    47  43  86 SW12      29.95R                  
$$

TNZ008-025-027-028-033-062-065-066-210000-
NORTH MIDDLE TENNESSEE
  
CITY           SKY/WX    TMP DP  RH WIND       PRES   REMARKS
NASHVILLE      CLOUDY    55  52  89 S7        29.90R                  
CLARKSVILLE    CLOUDY    51  47  86 W13       29.90R                  
SMYRNA         LGT RAIN  54  52  93 SW3       29.92R FOG              
CROSSVILLE     CLOUDY    50  48  93 VRB7      29.93S                  
$$

TNZ061-075-076-078-094-096-097-210000-
SOUTH MIDDLE TENNESSEE
  
CITY           SKY/WX    TMP DP  RH WIND       PRES   REMARKS
$$

TNZ017-018-042-046-047-210000-
NORTHEAST TENNESSEE
  
CITY           SKY/WX    TMP DP  RH WIND       PRES   REMARKS
TRI CITIES     MOCLDY    49  49 100 NE5       29.94F                  
$$

TNZ012-013-036-069-073-074-210000-
CENTRAL EAST TENNESSEE
  
CITY           SKY/WX    TMP DP  RH WIND       PRES   REMARKS
KNOXVILLE      RAIN      48  47  96 SE3       29.96S FOG              
OAK RIDGE      LGT RAIN  48  48 100 CALM      29.97F FOG              
$$

TNZ083-085-099-210000-
SOUTHEAST TENNESSEE
  
CITY           SKY/WX    TMP DP  RH WIND       PRES   REMARKS
CHATTANOOGA    LGT RAIN  46  43  89 CALM      30.01R FOG              
$$

SKY/WX REPORTED AS FAIR MEANS FEW OR NO CLOUDS BELOW
12 THOUSAND FEET.